Location: Oracle State Park
(32.6095°N, 110.7330°W)
Time: 20:30:08
(UTC-07:00)

Hubble Space Telescope - Visible Passes

Search period start: 18 March 2019 00:00
Search period end: 28 March 2019 00:00
Orbit: 537 x 540 km, 28.5° (Epoch: 17 March)

Date Brightness Start Highest point End Pass type
(mag) Time Alt. Az. Time Alt. Az. Time Alt. Az.
21 Mar 3.2 20:06:58 10° S 20:07:21 11° S 20:07:21 11° S visible
22 Mar 2.7 19:55:46 10° SSW 19:57:55 16° SSE 19:57:55 16° SSE visible
23 Mar 2.3 19:44:47 10° SSW 19:47:50 20° SSE 19:48:24 19° SSE visible
24 Mar 2.2 19:33:56 10° SW 19:37:16 24° SSE 19:38:49 19° SE visible
24 Mar 3.8 21:14:11 10° WSW 21:14:11 10° WSW 21:14:11 10° WSW visible
25 Mar 2.0 19:23:10 10° SW 19:26:43 28° SSE 19:29:10 16° ESE visible
25 Mar 3.4 21:03:39 10° WSW 21:04:32 16° WSW 21:04:32 16° WSW visible
26 Mar 1.8 19:12:29 10° SW 19:16:11 32° SSE 19:19:27 12° ESE visible
26 Mar 2.8 20:53:07 10° WSW 20:54:48 22° WSW 20:54:48 22° WSW visible
27 Mar 1.6 19:01:51 10° SW 19:05:39 36° S 19:09:27 10° ESE visible
27 Mar 2.3 20:42:37 10° WSW 20:45:02 31° SW 20:45:02 31° SW visible
